EW7237 Weather Reports


time (UTC)temp
C
wind
direction
speed
KPH
gust
KPH
rain 1hr
cm
rain 24hr
cm
rain mn
cm
humidity
%
barometer
mb
20260506134512 17 120 0.0 8.0 0.00 1.14 0.03 61 1002.2
20260506133037 18 120 0.0 1.6 0.00 1.14 0.03 59 1002.3
20260506131612 18 120 0.0 0.0 0.00 1.14 0.03 58 1002.3
20260506130002 18 120 0.0 0.0 0.00 1.14 0.03 59 1002.5
20260506124524 18 120 0.0 0.0 0.00 1.14 0.03 59 1002.6
20260506123055 17 121 0.0 0.0 0.00 1.14 0.03 60 1002.8
20260506121514 18 120 0.0 0.0 0.00 1.14 0.03 60 1003.1
20260506120024 18 120 0.0 0.0 0.00 1.14 0.03 61 1003.1
20260506114551 17 120 0.0 0.0 0.00 1.14 0.03 60 1003.3
20260506113008 17 120 0.0 0.0 0.00 1.14 0.03 62 1003.5
20260506111534 17 120 0.0 1.6 0.00 1.14 0.03 63 1003.6
20260506110053 16 120 0.0 1.6 0.00 1.14 0.03 63 1003.9
20260506104607 16 120 0.0 0.0 0.00 1.14 0.03 66 1004.0
20260506103029 16 121 0.0 0.0 0.00 1.14 0.03 70 1004.5
20260506101549 15 121 0.0 0.0 0.00 1.14 0.03 69 1004.5
20260506100007 15 121 0.0 0.0 0.00 1.14 0.03 70 1004.5
20260506094522 15 121 0.0 0.0 0.00 1.14 0.03 71 1004.5
20260506093052 15 121 0.0 0.0 0.00 1.14 0.03 72 1004.8
20260506091506 15 120 0.0 1.6 0.00 1.14 0.03 72 1004.8
20260506090028 15 121 0.0 0.0 0.00 1.14 0.03 73 1004.6
20260506084546 15 121 0.0 0.0 0.00 1.14 0.03 76 1004.6
20260506083121 15 120 0.0 0.0 0.00 1.14 0.03 76 1004.7
20260506081528 15 121 0.0 0.0 0.00 1.14 0.03 73 1004.7
20260506073003 13 120 0.0 0.0 0.00 1.14 0.03 88 1005.1
20260506071521 12 121 0.0 0.0 0.00 1.14 0.03 93 1005.4
20260506061531 9 120 0.0 0.0 0.00 1.14 0.03 96 1005.6
20260506044524 7 120 0.0 0.0 0.00 1.14 0.03 97 1006.2
20260506043040 7 121 0.0 0.0 0.00 1.14 0.03 97 1006.0
20260506041513 7 120 0.0 0.0 0.00 1.14 0.03 97 1006.1
20260506040039 7 120 0.0 0.0 0.00 1.14 0.03 96 1006.4
20260506034603 7 120 0.0 0.0 0.00 1.14 0.03 96 1006.4
20260506033016 7 120 0.0 0.0 0.00 1.14 0.03 96 1006.3
20260506031531 7 120 0.0 0.0 0.00 1.14 0.03 96 1006.6
20260506030044 8 120 0.0 0.0 0.00 1.14 0.03 96 1006.7
20260506024525 8 120 0.0 0.0 0.00 1.14 0.03 96 1006.9
20260506023025 8 120 0.0 0.0 0.00 1.14 0.03 96 1007.1
20260506021540 8 120 0.0 0.0 0.00 1.14 0.03 97 1007.1
20260506020106 8 120 0.0 0.0 0.00 1.14 0.03 96 1006.9
20260506014515 8 120 0.0 0.0 0.00 1.14 0.03 96 1007.0
20260506013043 8 120 0.0 0.0 0.00 1.14 0.03 96 1007.1
20260506011623 8 120 0.0 0.0 0.00 1.14 0.03 95 1007.2
20260506010027 8 120 0.0 0.0 0.00 1.14 0.03 95 1007.3
20260506004607 9 120 0.0 0.0 0.00 1.14 0.03 95 1007.3
20260506003019 10 120 0.0 0.0 0.00 1.14 0.03 95 1007.2
20260506001537 9 120 0.0 0.0 0.00 1.14 0.03 95 1007.5
20260506000114 10 120 0.0 0.0 0.00 1.14 0.03 95 1007.6
20260505234506 10 120 0.0 0.0 0.03 1.14 0.03 95 1007.6
20260505233028 10 120 0.0 0.0 0.03 1.14 0.03 94 1007.7
20260505231539 10 120 0.0 0.0 0.03 1.14 0.03 94 1007.8
20260505230109 10 120 0.0 0.0 0.03 1.14 0.03 94 1007.8
20260505224506 10 120 0.0 0.0 0.00 1.12 0.00 93 1007.9
20260505223024 10 120 0.0 0.0 0.00 1.12 0.00 93 1007.9
20260505221554 10 120 0.0 0.0 0.05 1.12 0.00 93 1007.9
20260505220100 11 120 0.0 0.0 0.08 1.12 0.00 92 1008.0
20260505214522 11 120 0.0 0.0 0.23 1.12 1.12 92 1008.2
20260505213034 11 120 0.0 8.0 0.33 1.12 1.12 92 1008.4
20260505211558 11 120 0.0 0.0 0.38 1.09 1.09 92 1008.4
20260505210032 11 120 0.0 0.0 0.53 1.02 1.02 93 1008.3
20260505204519 11 120 0.0 0.0 0.61 0.89 0.89 92 1008.2
20260505203019 11 120 0.0 0.0 0.79 0.79 0.79 90 1007.9
20260505201518 11 120 0.0 0.0 0.71 0.71 0.71 89 1007.7
20260505200018 12 121 0.0 0.0 0.48 0.48 0.48 87 1007.5
20260505194517 12 121 0.0 6.4 0.23 0.23 0.23 83 1007.1
20260505193103 13 120 0.0 0.0 0.00 0.00 0.00 78 1006.6
20260505191510 13 120 0.0 0.0 0.00 0.00 0.00 74 1005.7
20260505190005 14 121 0.0 0.0 0.00 0.00 0.00 70 1005.4
20260505184531 15 121 0.0 0.0 0.00 0.00 0.00 67 1005.1
20260505183043 15 121 0.0 0.0 0.00 0.00 0.00 65 1005.0
20260505181559 16 121 0.0 0.0 0.00 0.00 0.00 62 1005.1
20260505180037 16 120 0.0 0.0 0.00 0.00 0.00 62 1005.0
20260505174600 16 121 0.0 12.9 0.00 0.00 0.00 61 1004.6
20260505173014 17 121 0.0 16.1 0.00 0.00 0.00 60 1004.4
20260505171539 17 120 0.0 11.3 0.00 0.00 0.00 63 1004.3
20260505170057 18 120 0.0 14.5 0.00 0.00 0.00 64 1004.2
20260505164523 18 121 0.0 1.6 0.00 0.00 0.00 57 1004.1
20260505163052 19 120 0.0 0.0 0.00 0.00 0.00 54 1004.1
20260505161508 19 120 0.0 0.0 0.00 0.00 0.00 53 1004.1
20260505153010 18 121 0.0 0.0 0.00 0.00 0.00 59 1004.0
20260505151538 18 120 0.0 0.0 0.00 0.00 0.00 58 1004.2
20260505150120 18 120 0.0 0.0 0.00 0.00 0.00 60 1004.2